Location: Eschertshofen
(49.3064°N, 11.5756°E)
Time: 02:20:36
(UTC+00:00)

Okean 2 Rocket - Pass Details

Date: 18 September 2020
Orbit: 616 x 642 km, 82.5° (Epoch: 30 October)

Event Time Altitude Azimuth Distance (km) Brightness Sun altitude
Rises 18:03:39 0° 160° (SSE) 2,934 6.2 -8.0°
Reaches altitude 10° 18:06:06 10° 149° (SSE) 2,027 5.3 -8.3°
Maximum altitude 18:09:59 29° 89° (E) 1,162 3.9 -9.0°
Drops below altitude 10° 18:13:53 10° 29° (NNE) 2,030 5.5 -9.6°
Sets 18:16:20 0° 19° (NNE) 2,939 6.5 -10.0°
